This demonstration page uses our WeatherBlox Daily Observations layout. Learn more.

Left ArrowRight Arrow

Hourly Observations for April 28, 2020

Temp ( °F °C ) Dew Point ( °F °C ) Humidity (%) Winds ( mph kmh ) Pressure ( in mb ) Visibility ( mi km ) Precip ( " mm )
12:51 am 00:51 Clear 74 23.3 26 -3.3 17 17 NNW 12 19 29.83 1010 10 16.0934 0 0
1:51 am 01:51 Clear 73 22.8 27 -2.8 18 18 NNW 12 19 29.83 1010 10 16.0934 0 0
2:51 am 02:51 Clear 72 22.2 28 -2.2 19 19 NNW 12 19 29.83 1010 10 16.0934 0 0
3:51 am 03:51 Clear 67 19.4 29 -1.7 24 24 N 8 13 29.85 1011 10 16.0934 0 0
4:51 am 04:51 Clear 60 15.6 26 -3.3 27 27 ESE 6 9 29.88 1012 10 16.0934 0 0
5:51 am 05:51 Sunny 57 13.9 26 -3.3 30 30 ESE 5 7 29.9 1012 10 16.0934 0 0
6:51 am 06:51 Sunny 66 18.9 30 -1.1 26 26 Calm 29.91 1013 10 16.0934 0 0
7:51 am 07:51 Sunny 70 21.1 31 -0.6 23 23 S 6 9 29.93 1013 10 16.0934 0 0
8:51 am 08:51 Sunny 77 25 32 0 19 19 S 6 9 29.93 1014 10 16.0934 0 0
9:51 am 09:51 Sunny 84 28.9 29 -1.7 13 13 WNW 7 11 29.91 1013 10 16.0934 0 0
10:51 am 10:51 Sunny 89 31.7 26 -3.3 10 10 WNW 13 20 29.89 1012 10 16.0934 0 0
11:51 am 11:51 Sunny 91 32.8 25 -3.9 9 9 WSW 9 15 29.85 1011 10 16.0934 0 0
12:51 pm 12:51 Sunny 93 33.9 27 -2.8 9 9 W 12 19 29.83 1010 10 16.0934 0 0
1:51 pm 13:51 Sunny 93 33.9 27 -2.8 9 9 W 8 13 29.81 1010 10 16.0934 0 0
2:51 pm 14:51 Sunny 95 35 26 -3.3 8 8 WNW 9 15 29.78 1008 10 16.0934 0 0
3:51 pm 15:51 Sunny 95 35 26 -3.3 8 8 WNW 10 17 29.77 1008 10 16.0934 0 0
4:51 pm 16:51 Sunny 95 35 27 -2.8 9 9 W 16 26 29.78 1008 10 16.0934 0 0
5:51 pm 17:51 Sunny 95 35 28 -2.2 9 9 WNW 17 28 29.78 1009 10 16.0934 0 0
6:51 pm 18:51 Sunny 90 32.2 28 -2.2 11 11 WNW 13 20 29.79 1009 10 16.0934 0 0
7:51 pm 19:51 Clear 85 29.4 29 -1.7 13 13 WNW 9 15 29.81 1010 10 16.0934 0 0
8:36 pm 20:36 Mostly Clear 82 27.8 30 -1.1 15 15 WNW 9 15 29.76 1008 10 16.0934 0 0
8:51 pm 20:51 Clear 81 27.2 31 -0.6 16 16 WNW 10 17 29.83 1010 10 16.0934 0 0
9:51 pm 21:51 Clear 77 25 32 0 19 19 WNW 10 17 29.85 1011 10 16.0934 0 0
10:51 pm 22:51 Clear 76 24.4 31 -0.6 19 19 WNW 12 19 29.85 1011 10 16.0934 0 0
11:51 pm 23:51 Clear 75 23.9 31 -0.6 20 20 WNW 12 19 29.85 1011 10 16.0934 0 0

Powered by AerisWeather